Regional Weather Roundup
Issued by NWS

Home | Current Version | Previous Version | Graphics & Text | Print | Product List | Glossary On
Versions: 1 2 3 4 5 6 7 8 9 10 11 12 13 14 15 16 17 18 19 20 21 22 23 24 25 26 27 28 29 30 31 32 33 34 35 36 37 38 39 40 41 42 43 44 45 46 47 48 49 50
000
ASUS43 KLSX 270459
RWRMO

WEATHER SUMMARY FOR MISSOURI
NATIONAL WEATHER SERVICE SPRINGFIELD MO
1100 PM CST MON JAN 26 2015

NOTE: "FAIR" INDICATES FEW OR NO CLOUDS BELOW 12,000 FEET WITH NO
       SIGNIFICANT WEATHER AND/OR OBSTRUCTIONS TO VISIBILITY.
       CURRENT SKY AND/OR WEATHER CONDITIONS ARE NOT AVAILABLE FOR
       CHILLICOTHE AND FARMINGTON.

MOZ001>031-035>038-043-044-053-054-270600-
...NORTHERN AND WESTERN MISSOURI...

CITY           SKY/WX    TMP DP  RH WIND       PRES   REMARKS
KANSAS CTY INT CLEAR     43  32  65 NW8       30.01S
KANSAS C DTWN  CLEAR     42  33  70 SW5       30.01S
LEE`S SUMMIT   CLEAR     46  32  58 W8        30.01R
ST JOSEPH      CLEAR     32  29  88 CALM      30.03R
CHILLICOTHE      N/A     45  34  65 NW6       30.00R
KIRKSVILLE     CLEAR     40  34  79 N8        29.95R

$$
MOZ066>068-077>081-088>096-101>105-270600-
...SOUTHWEST MISSOURI...

CITY           SKY/WX    TMP DP  RH WIND       PRES   REMARKS
SPRINGFIELD    CLEAR     45  34  65 NW8       29.99S
JOPLIN         CLEAR     48  35  60 NW5       30.03R

$$
MOZ032>034-039>042-045>050-055>058-069>072-270600-
...CENTRAL MISSOURI...

CITY           SKY/WX    TMP DP  RH WIND       PRES   REMARKS
COLUMBIA       CLEAR     41  34  76 NW10      29.95S
JEFFERSON CITY CLEAR     33  30  88 CALM      29.96S
ROLLA          CLEAR     42  33  70 W10       29.92F
SEDALIA        CLEAR     44  33  65 NW9       29.99S
OSAGE BEACH    CLEAR     46  32  57 NW6       29.97S

$$
MOZ051-052-059>065-270600-
...EAST CENTRAL MISSOURI...

CITY           SKY/WX    TMP DP  RH WIND       PRES   REMARKS
ST LOUIS INTL  NOT AVBL
SPIRIT OF STL  CLOUDY    33  30  88 SW3       29.91S
ST CHARLES     CLOUDY    34  31  88 NW5       29.91S WCI  30

$$
MOZ072>076-082>087-097>100-106>115-270600-
...SOUTH CENTRAL AND SOUTHEAST MISSOURI...

CITY           SKY/WX    TMP DP  RH WIND       PRES   REMARKS
CAPE GIRARDEAU CLOUDY    31  31 100 CALM      29.94S
FARMINGTON     CLOUDY    30  27  86 MISG      29.93F
POPLAR BLUFF   CLEAR     31  28  89 N3        29.93R
WEST PLAINS    CLEAR     45  34  65 W7        29.96R

$$


USA.gov is the U.S. government's official web portal to all federal, state and local government web resources and services.